| time (UTC) | temp F | wind direction | speed MPH | gust MPH | rain 1hr in | rain 24hr in | rain mn in | humidity % | barometer mb |
| 20260507144142 | 59 | 49 | 0.0 | 1.0 | 0.00 | 0.00 | 0.00 | 61 | 1015.4 |
| 20260507143638 | 58 | 99 | 1.0 | 2.0 | 0.00 | 0.00 | 0.00 | 62 | 1015.5 |
| 20260507143135 | 57 | 199 | 2.0 | 3.0 | 0.00 | 0.00 | 0.00 | 63 | 1015.6 |
| 20260507142631 | 57 | 203 | 2.0 | 2.0 | 0.00 | 0.00 | 0.00 | 63 | 1015.6 |
| 20260507142128 | 57 | 242 | 1.0 | 2.0 | 0.00 | 0.00 | 0.00 | 66 | 1015.5 |
| 20260507141624 | 56 | 355 | 1.0 | 2.0 | 0.00 | 0.00 | 0.00 | 66 | 1015.6 |
| 20260507141121 | 55 | 66 | 0.0 | 1.0 | 0.00 | 0.00 | 0.00 | 67 | 1016.0 |
| 20260507140617 | 55 | 221 | 0.0 | 1.0 | 0.00 | 0.00 | 0.00 | 67 | 1015.9 |
| 20260507140115 | 55 | 229 | 3.0 | 6.0 | 0.00 | 0.00 | 0.00 | 68 | 1015.9 |
| 20260507135612 | 54 | 64 | 1.0 | 2.0 | 0.00 | 0.00 | 0.00 | 69 | 1015.9 |
| 20260507135109 | 54 | 312 | 1.0 | 2.0 | 0.00 | 0.00 | 0.00 | 70 | 1015.9 |
| 20260507134605 | 53 | 240 | 2.0 | 2.0 | 0.00 | 0.00 | 0.00 | 70 | 1015.7 |
| 20260507134102 | 53 | 196 | 3.0 | 3.0 | 0.00 | 0.00 | 0.00 | 70 | 1015.9 |
| 20260507133557 | 53 | 323 | 0.0 | 1.0 | 0.00 | 0.00 | 0.00 | 71 | 1015.7 |
| 20260507133055 | 52 | 206 | 3.0 | 3.0 | 0.00 | 0.00 | 0.00 | 72 | 1016.0 |
| 20260507132552 | 52 | 199 | 1.0 | 1.0 | 0.00 | 0.00 | 0.00 | 72 | 1016.0 |
| 20260507132048 | 52 | 346 | 1.0 | 1.0 | 0.00 | 0.00 | 0.00 | 72 | 1015.6 |
| 20260507131545 | 52 | 205 | 4.0 | 5.0 | 0.00 | 0.00 | 0.00 | 72 | 1016.1 |
| 20260507131043 | 51 | 227 | 2.0 | 2.0 | 0.00 | 0.00 | 0.00 | 73 | 1015.7 |
| 20260507130539 | 51 | 238 | 1.0 | 2.0 | 0.00 | 0.00 | 0.00 | 73 | 1016.1 |
| 20260507130038 | 50 | 294 | 1.0 | 1.0 | 0.00 | 0.00 | 0.00 | 73 | 1015.9 |
| 20260507125536 | 50 | 334 | 1.0 | 1.0 | 0.00 | 0.00 | 0.00 | 74 | 1016.4 |
| 20260507125033 | 50 | 279 | 1.0 | 1.0 | 0.00 | 0.00 | 0.00 | 73 | 1016.4 |
| 20260507124529 | 50 | 0 | 1.0 | 1.0 | 0.00 | 0.00 | 0.00 | 74 | 1016.2 |
| 20260507124027 | 50 | 25 | 0.0 | 1.0 | 0.00 | 0.00 | 0.00 | 74 | 1016.1 |
| 20260507123525 | 50 | 19 | 0.0 | 1.0 | 0.00 | 0.00 | 0.00 | 74 | 1016.2 |
| 20260507123022 | 49 | 11 | 1.0 | 1.0 | 0.00 | 0.00 | 0.00 | 74 | 1015.9 |
| 20260507122517 | 49 | 272 | 1.0 | 1.0 | 0.00 | 0.00 | 0.00 | 74 | 1016.2 |
| 20260507122013 | 48 | 12 | 1.0 | 1.0 | 0.00 | 0.00 | 0.00 | 74 | 1016.2 |
| 20260507121509 | 48 | 311 | 0.0 | 1.0 | 0.00 | 0.00 | 0.00 | 74 | 1016.2 |
| 20260507121004 | 48 | 349 | 0.0 | 0.0 | 0.00 | 0.00 | 0.00 | 75 | 1016.1 |
| 20260507120501 | 47 | 311 | 1.0 | 1.0 | 0.00 | 0.00 | 0.00 | 75 | 1016.0 |
| 20260507115958 | 47 | 6 | 0.0 | 0.0 | 0.00 | 0.00 | 0.00 | 75 | 1016.1 |
| 20260507115454 | 48 | 5 | 0.0 | 0.0 | 0.00 | 0.00 | 0.00 | 74 | 1016.1 |
| 20260507114950 | 48 | 25 | 0.0 | 0.0 | 0.00 | 0.00 | 0.00 | 73 | 1015.9 |
| 20260507114446 | 48 | 4 | 0.0 | 0.0 | 0.00 | 0.00 | 0.00 | 73 | 1016.0 |
| 20260507113944 | 48 | 309 | 1.0 | 1.0 | 0.00 | 0.00 | 0.00 | 72 | 1016.1 |
| 20260507113441 | 48 | 338 | 1.0 | 1.0 | 0.00 | 0.00 | 0.00 | 71 | 1016.1 |
| 20260507112938 | 48 | 338 | 0.0 | 1.0 | 0.00 | 0.00 | 0.00 | 71 | 1015.9 |
| 20260507112435 | 48 | 338 | 0.0 | 1.0 | 0.00 | 0.00 | 0.00 | 71 | 1015.9 |
| 20260507111932 | 48 | 333 | 0.0 | 0.0 | 0.00 | 0.00 | 0.00 | 71 | 1015.7 |
| 20260507111430 | 48 | 341 | 0.0 | 1.0 | 0.00 | 0.00 | 0.00 | 70 | 1015.5 |
| 20260507110926 | 47 | 309 | 1.0 | 1.0 | 0.00 | 0.00 | 0.00 | 70 | 1015.6 |
| 20260507110422 | 48 | 15 | 0.0 | 0.0 | 0.00 | 0.00 | 0.00 | 70 | 1016.0 |
| 20260507105919 | 48 | 341 | 0.0 | 0.0 | 0.00 | 0.00 | 0.00 | 69 | 1016.1 |
| 20260507105416 | 48 | 348 | 0.0 | 0.0 | 0.00 | 0.00 | 0.00 | 68 | 1015.7 |
| 20260507104912 | 48 | 358 | 0.0 | 0.0 | 0.00 | 0.00 | 0.00 | 68 | 1015.7 |
| 20260507104409 | 48 | 353 | 0.0 | 0.0 | 0.00 | 0.00 | 0.00 | 67 | 1015.5 |
| 20260507103905 | 48 | 306 | 1.0 | 1.0 | 0.00 | 0.00 | 0.00 | 66 | 1015.7 |
| 20260507103402 | 48 | 355 | 0.0 | 0.0 | 0.00 | 0.00 | 0.00 | 66 | 1015.7 |
| 20260507102858 | 48 | 342 | 0.0 | 0.0 | 0.00 | 0.00 | 0.00 | 65 | 1015.7 |
| 20260507102354 | 48 | 232 | 1.0 | 2.0 | 0.00 | 0.00 | 0.00 | 65 | 1015.7 |
| 20260507101850 | 49 | 297 | 1.0 | 1.0 | 0.00 | 0.00 | 0.00 | 64 | 1015.7 |
| 20260507101345 | 49 | 323 | 0.0 | 0.0 | 0.00 | 0.00 | 0.00 | 63 | 1016.1 |
| 20260507100842 | 49 | 268 | 1.0 | 1.0 | 0.00 | 0.00 | 0.00 | 63 | 1015.6 |
| 20260507100341 | 49 | 341 | 1.0 | 2.0 | 0.00 | 0.00 | 0.00 | 62 | 1015.9 |
| 20260507095838 | 49 | 305 | 1.0 | 1.0 | 0.00 | 0.00 | 0.00 | 62 | 1015.9 |
| 20260507095335 | 49 | 278 | 1.0 | 1.0 | 0.00 | 0.00 | 0.00 | 61 | 1015.9 |
| 20260507094832 | 49 | 288 | 1.0 | 1.0 | 0.00 | 0.00 | 0.00 | 60 | 1015.7 |
| 20260507094328 | 49 | 5 | 1.0 | 1.0 | 0.00 | 0.00 | 0.00 | 60 | 1016.2 |
| 20260507093825 | 49 | 291 | 1.0 | 1.0 | 0.00 | 0.00 | 0.00 | 60 | 1016.1 |
| 20260507093324 | 49 | 287 | 1.0 | 1.0 | 0.00 | 0.00 | 0.00 | 61 | 1016.1 |
| 20260507092821 | 49 | 355 | 0.0 | 0.0 | 0.00 | 0.00 | 0.00 | 61 | 1015.9 |
| 20260507092318 | 49 | 334 | 1.0 | 1.0 | 0.00 | 0.00 | 0.00 | 60 | 1016.0 |
| 20260507091814 | 49 | 282 | 1.0 | 1.0 | 0.00 | 0.00 | 0.00 | 60 | 1016.3 |
| 20260507091311 | 49 | 277 | 1.0 | 2.0 | 0.00 | 0.00 | 0.00 | 60 | 1016.1 |
| 20260507090805 | 49 | 351 | 0.0 | 1.0 | 0.00 | 0.00 | 0.00 | 60 | 1016.2 |
| 20260507090302 | 49 | 309 | 1.0 | 1.0 | 0.00 | 0.00 | 0.00 | 59 | 1016.2 |
| 20260507085759 | 49 | 245 | 1.0 | 1.0 | 0.00 | 0.00 | 0.00 | 59 | 1016.2 |
| 20260507085256 | 49 | 314 | 1.0 | 2.0 | 0.00 | 0.00 | 0.00 | 59 | 1015.9 |
| 20260507084754 | 49 | 294 | 1.0 | 1.0 | 0.00 | 0.00 | 0.00 | 59 | 1016.3 |
| 20260507084250 | 49 | 351 | 0.0 | 0.0 | 0.00 | 0.00 | 0.00 | 59 | 1016.1 |
| 20260507083748 | 50 | 249 | 1.0 | 2.0 | 0.00 | 0.00 | 0.00 | 58 | 1016.2 |
| 20260507083244 | 50 | 251 | 1.0 | 1.0 | 0.00 | 0.00 | 0.00 | 57 | 1016.2 |
| 20260507082740 | 50 | 213 | 1.0 | 2.0 | 0.00 | 0.00 | 0.00 | 57 | 1016.2 |
| 20260507082236 | 50 | 254 | 1.0 | 1.0 | 0.00 | 0.00 | 0.00 | 57 | 1016.1 |
| 20260507081733 | 50 | 249 | 2.0 | 2.0 | 0.00 | 0.00 | 0.00 | 57 | 1015.7 |
| 20260507081229 | 50 | 245 | 1.0 | 1.0 | 0.00 | 0.00 | 0.00 | 57 | 1016.1 |
| 20260507080726 | 50 | 331 | 0.0 | 1.0 | 0.00 | 0.00 | 0.00 | 57 | 1016.1 |
| 20260507080222 | 50 | 349 | 0.0 | 0.0 | 0.00 | 0.00 | 0.00 | 57 | 1016.1 |
| 20260507075717 | 50 | 339 | 0.0 | 1.0 | 0.00 | 0.00 | 0.00 | 57 | 1016.0 |
| 20260507075214 | 50 | 299 | 1.0 | 1.0 | 0.00 | 0.00 | 0.00 | 57 | 1015.9 |
| 20260507074710 | 50 | 304 | 1.0 | 1.0 | 0.00 | 0.00 | 0.00 | 57 | 1016.2 |
| 20260507074209 | 49 | 285 | 0.0 | 1.0 | 0.00 | 0.00 | 0.00 | 58 | 1016.2 |
| 20260507073705 | 49 | 316 | 1.0 | 1.0 | 0.00 | 0.00 | 0.00 | 59 | 1016.2 |
| 20260507073201 | 49 | 8 | 0.0 | 0.0 | 0.00 | 0.00 | 0.00 | 60 | 1016.1 |
| 20260507072659 | 49 | 4 | 0.0 | 0.0 | 0.00 | 0.00 | 0.00 | 59 | 1016.0 |
| 20260507072156 | 49 | 4 | 0.0 | 0.0 | 0.00 | 0.00 | 0.00 | 58 | 1016.3 |
| 20260507071654 | 50 | 10 | 0.0 | 0.0 | 0.00 | 0.00 | 0.00 | 57 | 1016.4 |
| 20260507071150 | 50 | 355 | 0.0 | 0.0 | 0.00 | 0.00 | 0.00 | 57 | 1016.3 |
| 20260507070647 | 50 | 355 | 0.0 | 0.0 | 0.00 | 0.00 | 0.00 | 57 | 1016.6 |
| 20260507070144 | 51 | 345 | 1.0 | 1.0 | 0.00 | 0.00 | 0.00 | 56 | 1016.4 |
| 20260507065640 | 51 | 343 | 0.0 | 0.0 | 0.00 | 0.00 | 0.00 | 55 | 1016.7 |
| 20260507065137 | 51 | 326 | 0.0 | 1.0 | 0.00 | 0.00 | 0.00 | 55 | 1016.7 |
| 20260507064635 | 51 | 328 | 1.0 | 2.0 | 0.00 | 0.00 | 0.00 | 54 | 1016.7 |
| 20260507064133 | 51 | 268 | 1.0 | 1.0 | 0.00 | 0.00 | 0.00 | 54 | 1016.8 |
| 20260507063630 | 51 | 346 | 0.0 | 0.0 | 0.00 | 0.00 | 0.00 | 55 | 1016.7 |
| 20260507063127 | 51 | 340 | 0.0 | 0.0 | 0.00 | 0.00 | 0.00 | 56 | 1016.8 |
| 20260507062624 | 50 | 320 | 0.0 | 1.0 | 0.00 | 0.00 | 0.00 | 58 | 1016.7 |
| 20260507062122 | 50 | 26 | 0.0 | 0.0 | 0.00 | 0.00 | 0.00 | 60 | 1016.8 |
| 20260507061619 | 50 | 26 | 0.0 | 0.0 | 0.00 | 0.00 | 0.00 | 60 | 1016.7 |
| 20260507061117 | 50 | 26 | 0.0 | 0.0 | 0.00 | 0.00 | 0.00 | 61 | 1016.7 |
| 20260507060615 | 50 | 26 | 0.0 | 0.0 | 0.00 | 0.00 | 0.00 | 60 | 1016.9 |
| 20260507060111 | 50 | 26 | 0.0 | 0.0 | 0.00 | 0.00 | 0.00 | 61 | 1016.7 |
| 20260507055606 | 50 | 27 | 0.0 | 0.0 | 0.00 | 0.00 | 0.00 | 62 | 1016.8 |
| 20260507055103 | 50 | 24 | 0.0 | 0.0 | 0.00 | 0.00 | 0.00 | 62 | 1016.7 |
| 20260507054559 | 50 | 24 | 0.0 | 0.0 | 0.00 | 0.00 | 0.00 | 59 | 1016.7 |
| 20260507054056 | 49 | 24 | 0.0 | 0.0 | 0.00 | 0.00 | 0.00 | 59 | 1016.9 |
| 20260507053554 | 49 | 24 | 0.0 | 0.0 | 0.00 | 0.00 | 0.00 | 60 | 1016.9 |
| 20260507053052 | 49 | 24 | 0.0 | 0.0 | 0.00 | 0.00 | 0.00 | 60 | 1016.8 |
| 20260507052550 | 49 | 24 | 0.0 | 0.0 | 0.00 | 0.00 | 0.00 | 61 | 1016.7 |
| 20260507052046 | 49 | 24 | 0.0 | 0.0 | 0.00 | 0.00 | 0.00 | 62 | 1016.8 |
| 20260507051544 | 49 | 25 | 0.0 | 0.0 | 0.00 | 0.00 | 0.00 | 63 | 1016.8 |
| 20260507051040 | 48 | 20 | 0.0 | 0.0 | 0.00 | 0.00 | 0.00 | 62 | 1016.8 |
| 20260507050537 | 48 | 19 | 0.0 | 0.0 | 0.00 | 0.00 | 0.00 | 62 | 1017.0 |
| 20260507050033 | 48 | 22 | 0.0 | 0.0 | 0.00 | 0.00 | 0.00 | 63 | 1016.8 |
| 20260507045530 | 48 | 49 | 1.0 | 1.0 | 0.00 | 0.00 | 0.00 | 63 | 1016.8 |
| 20260507045027 | 48 | 40 | 1.0 | 1.0 | 0.00 | 0.00 | 0.00 | 62 | 1016.9 |
| 20260507044524 | 49 | 33 | 0.0 | 1.0 | 0.00 | 0.00 | 0.00 | 62 | 1016.9 |
| 20260507044021 | 49 | 32 | 0.0 | 0.0 | 0.00 | 0.00 | 0.00 | 61 | 1016.8 |
| 20260507043517 | 49 | 43 | 0.0 | 1.0 | 0.00 | 0.00 | 0.00 | 60 | 1016.7 |
| 20260507043015 | 49 | 46 | 0.0 | 1.0 | 0.00 | 0.00 | 0.00 | 62 | 1016.8 |
| 20260507042510 | 49 | 46 | 0.0 | 1.0 | 0.00 | 0.00 | 0.00 | 61 | 1017.0 |
| 20260507042006 | 49 | 62 | 1.0 | 1.0 | 0.00 | 0.00 | 0.00 | 61 | 1016.8 |
| 20260507041503 | 49 | 33 | 1.0 | 1.0 | 0.00 | 0.00 | 0.00 | 59 | 1016.6 |
| 20260507041000 | 49 | 26 | 0.0 | 0.0 | 0.00 | 0.00 | 0.00 | 61 | 1016.7 |
| 20260507040456 | 49 | 47 | 1.0 | 1.0 | 0.00 | 0.00 | 0.00 | 61 | 1017.1 |
| 20260507035951 | 49 | 24 | 0.0 | 0.0 | 0.00 | 0.00 | 0.00 | 59 | 1017.0 |
| 20260507035448 | 49 | 24 | 0.0 | 0.0 | 0.00 | 0.00 | 0.00 | 60 | 1017.0 |
| 20260507034945 | 49 | 24 | 0.0 | 0.0 | 0.00 | 0.00 | 0.00 | 60 | 1017.3 |
| 20260507034442 | 49 | 24 | 0.0 | 0.0 | 0.00 | 0.00 | 0.00 | 57 | 1017.0 |
| 20260507033940 | 49 | 24 | 0.0 | 0.0 | 0.00 | 0.00 | 0.00 | 56 | 1016.9 |
| 20260507033438 | 50 | 24 | 0.0 | 0.0 | 0.00 | 0.00 | 0.00 | 61 | 1016.9 |
| 20260507032934 | 50 | 24 | 0.0 | 0.0 | 0.00 | 0.00 | 0.00 | 57 | 1016.9 |
| 20260507032432 | 50 | 24 | 0.0 | 0.0 | 0.00 | 0.00 | 0.00 | 56 | 1016.9 |
| 20260507031927 | 50 | 24 | 0.0 | 0.0 | 0.00 | 0.00 | 0.00 | 54 | 1016.8 |
| 20260507031426 | 50 | 24 | 0.0 | 0.0 | 0.00 | 0.00 | 0.00 | 54 | 1016.9 |
| 20260507030921 | 51 | 24 | 0.0 | 0.0 | 0.00 | 0.00 | 0.00 | 53 | 1016.8 |
| 20260507030418 | 51 | 24 | 0.0 | 0.0 | 0.00 | 0.00 | 0.00 | 53 | 1017.0 |
| 20260507025915 | 51 | 24 | 0.0 | 0.0 | 0.00 | 0.00 | 0.00 | 53 | 1017.0 |
| 20260507025413 | 51 | 24 | 0.0 | 0.0 | 0.00 | 0.00 | 0.00 | 52 | 1016.9 |
| 20260507024910 | 51 | 24 | 0.0 | 0.0 | 0.00 | 0.00 | 0.00 | 51 | 1016.9 |
| 20260507024407 | 51 | 24 | 0.0 | 0.0 | 0.00 | 0.00 | 0.00 | 51 | 1016.8 |
| 20260507023903 | 51 | 24 | 0.0 | 0.0 | 0.00 | 0.00 | 0.00 | 51 | 1016.6 |
| 20260507023400 | 51 | 24 | 0.0 | 0.0 | 0.00 | 0.00 | 0.00 | 55 | 1016.6 |
| 20260507022857 | 51 | 24 | 0.0 | 0.0 | 0.00 | 0.00 | 0.00 | 50 | 1016.8 |
| 20260507022354 | 51 | 24 | 0.0 | 0.0 | 0.00 | 0.00 | 0.00 | 52 | 1016.6 |
| 20260507021850 | 51 | 24 | 0.0 | 0.0 | 0.00 | 0.00 | 0.00 | 51 | 1016.7 |
| 20260507021345 | 51 | 25 | 0.0 | 1.0 | 0.00 | 0.00 | 0.00 | 52 | 1016.5 |
| 20260507020843 | 51 | 24 | 0.0 | 0.0 | 0.00 | 0.00 | 0.00 | 52 | 1016.4 |
| 20260507020339 | 52 | 24 | 0.0 | 0.0 | 0.00 | 0.00 | 0.00 | 51 | 1016.5 |
| 20260507015837 | 52 | 24 | 0.0 | 0.0 | 0.00 | 0.00 | 0.00 | 51 | 1016.4 |
| 20260507015335 | 53 | 24 | 0.0 | 0.0 | 0.00 | 0.00 | 0.00 | 49 | 1016.3 |
| 20260507014831 | 53 | 23 | 0.0 | 0.0 | 0.00 | 0.00 | 0.00 | 48 | 1016.2 |
| 20260507014328 | 53 | 24 | 0.0 | 0.0 | 0.00 | 0.00 | 0.00 | 46 | 1016.3 |
| 20260507013824 | 54 | 2 | 0.0 | 0.0 | 0.00 | 0.00 | 0.00 | 47 | 1016.4 |
| 20260507013321 | 55 | 2 | 0.0 | 0.0 | 0.00 | 0.00 | 0.00 | 43 | 1016.2 |
| 20260507012819 | 55 | 0 | 0.0 | 0.0 | 0.00 | 0.00 | 0.00 | 41 | 1016.3 |
| 20260507012314 | 56 | 359 | 0.0 | 0.0 | 0.00 | 0.00 | 0.00 | 41 | 1016.2 |
| 20260507011806 | 56 | 2 | 0.0 | 0.0 | 0.00 | 0.00 | 0.00 | 40 | 1016.1 |
| 20260507011303 | 57 | 3 | 0.0 | 1.0 | 0.00 | 0.00 | 0.00 | 40 | 1016.2 |
| 20260507010802 | 57 | 335 | 1.0 | 1.0 | 0.00 | 0.00 | 0.00 | 38 | 1016.1 |
| 20260507010259 | 57 | 358 | 0.0 | 0.0 | 0.00 | 0.00 | 0.00 | 40 | 1016.1 |
| 20260507005756 | 57 | 336 | 2.0 | 2.0 | 0.00 | 0.00 | 0.00 | 37 | 1015.9 |
| 20260507005252 | 57 | 330 | 2.0 | 3.0 | 0.00 | 0.00 | 0.00 | 37 | 1015.6 |
| 20260507004749 | 58 | 342 | 1.0 | 1.0 | 0.00 | 0.00 | 0.00 | 37 | 1015.6 |
| 20260507004247 | 58 | 338 | 1.0 | 1.0 | 0.00 | 0.00 | 0.00 | 36 | 1016.0 |
| 20260507003743 | 58 | 345 | 2.0 | 2.0 | 0.00 | 0.00 | 0.00 | 37 | 1015.9 |
| 20260507003238 | 58 | 38 | 3.0 | 3.0 | 0.00 | 0.00 | 0.00 | 36 | 1015.7 |
| 20260507002734 | 59 | 353 | 5.0 | 5.0 | 0.00 | 0.00 | 0.00 | 36 | 1015.9 |
| 20260507002231 | 58 | 339 | 5.0 | 6.0 | 0.00 | 0.00 | 0.00 | 35 | 1016.1 |
| 20260507001727 | 59 | 1 | 3.0 | 6.0 | 0.00 | 0.00 | 0.00 | 36 | 1015.9 |
| 20260507001225 | 59 | 267 | 2.0 | 2.0 | 0.00 | 0.00 | 0.00 | 36 | 1015.7 |
| 20260507000721 | 58 | 345 | 1.0 | 1.0 | 0.00 | 0.00 | 0.00 | 37 | 1015.7 |
| 20260507000217 | 58 | 14 | 1.0 | 1.0 | 0.00 | 0.00 | 0.00 | 38 | 1015.9 |
| 20260506235714 | 59 | 348 | 2.0 | 2.0 | 0.00 | 0.00 | 0.00 | 36 | 1015.9 |
| 20260506235209 | 59 | 15 | 1.0 | 1.0 | 0.00 | 0.00 | 0.00 | 36 | 1015.9 |
| 20260506234706 | 58 | 286 | 2.0 | 2.0 | 0.00 | 0.00 | 0.00 | 35 | 1015.9 |
| 20260506234204 | 59 | 330 | 3.0 | 3.0 | 0.00 | 0.00 | 0.00 | 35 | 1016.0 |
| 20260506233701 | 59 | 3 | 1.0 | 1.0 | 0.00 | 0.00 | 0.00 | 36 | 1015.7 |
| 20260506233157 | 59 | 8 | 2.0 | 2.0 | 0.00 | 0.00 | 0.00 | 36 | 1016.0 |
| 20260506232654 | 59 | 344 | 4.0 | 5.0 | 0.00 | 0.00 | 0.00 | 35 | 1016.0 |
| 20260506232149 | 59 | 338 | 3.0 | 5.0 | 0.00 | 0.00 | 0.00 | 35 | 1015.9 |
| 20260506231646 | 59 | 343 | 3.0 | 5.0 | 0.00 | 0.00 | 0.00 | 35 | 1015.6 |
| 20260506231145 | 59 | 337 | 4.0 | 5.0 | 0.00 | 0.00 | 0.00 | 35 | 1015.7 |
| 20260506230641 | 60 | 357 | 5.0 | 6.0 | 0.00 | 0.00 | 0.00 | 34 | 1015.6 |
| 20260506230138 | 59 | 17 | 0.0 | 0.0 | 0.00 | 0.00 | 0.00 | 36 | 1015.6 |
| 20260506225635 | 59 | 10 | 0.0 | 1.0 | 0.00 | 0.00 | 0.00 | 36 | 1015.7 |
| 20260506225132 | 59 | 281 | 2.0 | 2.0 | 0.00 | 0.00 | 0.00 | 35 | 1015.7 |
| 20260506224628 | 60 | 326 | 2.0 | 2.0 | 0.00 | 0.00 | 0.00 | 36 | 1015.6 |
| 20260506224125 | 60 | 354 | 3.0 | 3.0 | 0.00 | 0.00 | 0.00 | 35 | 1015.7 |
| 20260506223621 | 60 | 15 | 3.0 | 3.0 | 0.00 | 0.00 | 0.00 | 36 | 1016.0 |
| 20260506223117 | 59 | 2 | 2.0 | 3.0 | 0.00 | 0.00 | 0.00 | 35 | 1015.9 |
| 20260506222614 | 59 | 340 | 3.0 | 3.0 | 0.00 | 0.00 | 0.00 | 36 | 1016.0 |
| 20260506222110 | 59 | 354 | 1.0 | 2.0 | 0.00 | 0.00 | 0.00 | 38 | 1015.9 |
| 20260506221608 | 60 | 340 | 0.0 | 1.0 | 0.00 | 0.00 | 0.00 | 37 | 1015.7 |
| 20260506221106 | 60 | 1 | 1.0 | 1.0 | 0.00 | 0.00 | 0.00 | 37 | 1016.0 |
| 20260506220602 | 60 | 10 | 1.0 | 1.0 | 0.00 | 0.00 | 0.00 | 36 | 1016.1 |
| 20260506220057 | 60 | 352 | 2.0 | 3.0 | 0.00 | 0.00 | 0.00 | 37 | 1016.0 |
| 20260506215554 | 60 | 151 | 1.0 | 3.0 | 0.00 | 0.00 | 0.00 | 37 | 1016.2 |
| 20260506215050 | 60 | 357 | 2.0 | 3.0 | 0.00 | 0.00 | 0.00 | 36 | 1015.7 |
| 20260506214547 | 60 | 355 | 1.0 | 1.0 | 0.00 | 0.00 | 0.00 | 38 | 1016.2 |
| 20260506214044 | 60 | 338 | 0.0 | 1.0 | 0.00 | 0.00 | 0.00 | 37 | 1016.2 |
| 20260506213543 | 60 | 18 | 1.0 | 1.0 | 0.00 | 0.00 | 0.00 | 37 | 1016.0 |
| 20260506213040 | 59 | 2 | 3.0 | 3.0 | 0.00 | 0.00 | 0.00 | 38 | 1016.2 |
| 20260506212536 | 60 | 338 | 4.0 | 6.0 | 0.00 | 0.00 | 0.00 | 34 | 1016.2 |
| 20260506212031 | 60 | 324 | 4.0 | 5.0 | 0.00 | 0.00 | 0.00 | 35 | 1016.2 |
| 20260506211527 | 60 | 326 | 3.0 | 3.0 | 0.00 | 0.00 | 0.00 | 36 | 1016.4 |
| 20260506211025 | 59 | 349 | 1.0 | 2.0 | 0.00 | 0.00 | 0.00 | 36 | 1016.2 |
| 20260506210521 | 60 | 2 | 1.0 | 2.0 | 0.00 | 0.00 | 0.00 | 37 | 1016.5 |
| 20260506210018 | 60 | 340 | 3.0 | 5.0 | 0.00 | 0.00 | 0.00 | 36 | 1016.5 |
| 20260506205515 | 60 | 358 | 1.0 | 1.0 | 0.00 | 0.00 | 0.00 | 37 | 1016.8 |
| 20260506205010 | 60 | 24 | 6.0 | 9.0 | 0.00 | 0.00 | 0.00 | 34 | 1016.8 |
| 20260506204508 | 60 | 1 | 3.0 | 6.0 | 0.00 | 0.00 | 0.00 | 37 | 1016.9 |
| 20260506204005 | 61 | 355 | 1.0 | 1.0 | 0.00 | 0.00 | 0.00 | 36 | 1016.7 |
| 20260506203503 | 60 | 351 | 0.0 | 0.0 | 0.00 | 0.00 | 0.00 | 38 | 1016.9 |
| 20260506202959 | 60 | 329 | 5.0 | 10.0 | 0.00 | 0.00 | 0.00 | 35 | 1016.9 |
| 20260506202456 | 60 | 353 | 2.0 | 2.0 | 0.00 | 0.00 | 0.00 | 34 | 1017.0 |
| 20260506201952 | 60 | 23 | 1.0 | 1.0 | 0.00 | 0.00 | 0.00 | 38 | 1017.2 |
| 20260506201450 | 60 | 3 | 2.0 | 2.0 | 0.00 | 0.00 | 0.00 | 38 | 1016.9 |
| 20260506200947 | 60 | 325 | 3.0 | 5.0 | 0.00 | 0.00 | 0.00 | 35 | 1017.3 |
| 20260506200443 | 59 | 329 | 2.0 | 2.0 | 0.00 | 0.00 | 0.00 | 35 | 1017.1 |
| 20260506195939 | 60 | 6 | 1.0 | 2.0 | 0.00 | 0.00 | 0.00 | 39 | 1017.1 |
| 20260506195437 | 60 | 269 | 2.0 | 3.0 | 0.00 | 0.00 | 0.00 | 37 | 1017.3 |
| 20260506194933 | 59 | 332 | 3.0 | 5.0 | 0.00 | 0.00 | 0.00 | 37 | 1017.4 |
| 20260506194431 | 60 | 301 | 5.0 | 7.0 | 0.00 | 0.00 | 0.00 | 36 | 1017.4 |
| 20260506193927 | 59 | 71 | 3.0 | 3.0 | 0.00 | 0.00 | 0.00 | 35 | 1017.4 |
| 20260506193424 | 61 | 24 | 2.0 | 2.0 | 0.00 | 0.00 | 0.00 | 35 | 1017.3 |
| 20260506192921 | 61 | 349 | 1.0 | 2.0 | 0.00 | 0.00 | 0.00 | 37 | 1017.6 |
| 20260506192418 | 60 | 358 | 0.0 | 1.0 | 0.00 | 0.00 | 0.00 | 40 | 1017.3 |
| 20260506191915 | 59 | 359 | 1.0 | 1.0 | 0.00 | 0.00 | 0.00 | 38 | 1017.1 |
| 20260506191411 | 59 | 342 | 3.0 | 3.0 | 0.00 | 0.00 | 0.00 | 38 | 1017.3 |
| 20260506190908 | 58 | 28 | 4.0 | 6.0 | 0.00 | 0.00 | 0.00 | 38 | 1017.3 |
| 20260506190404 | 59 | 337 | 0.0 | 1.0 | 0.00 | 0.00 | 0.00 | 39 | 1017.5 |
| 20260506185901 | 59 | 20 | 0.0 | 0.0 | 0.00 | 0.00 | 0.00 | 40 | 1017.5 |
| 20260506185359 | 58 | 322 | 4.0 | 5.0 | 0.00 | 0.00 | 0.00 | 37 | 1017.7 |
| 20260506184856 | 58 | 18 | 3.0 | 5.0 | 0.00 | 0.00 | 0.00 | 37 | 1017.8 |
| 20260506184353 | 58 | 22 | 4.0 | 6.0 | 0.00 | 0.00 | 0.00 | 36 | 1017.7 |
| 20260506183850 | 59 | 310 | 2.0 | 2.0 | 0.00 | 0.00 | 0.00 | 38 | 1017.6 |
| 20260506183345 | 57 | 352 | 3.0 | 3.0 | 0.00 | 0.00 | 0.00 | 38 | 1017.9 |
| 20260506182843 | 57 | 330 | 3.0 | 5.0 | 0.00 | 0.00 | 0.00 | 37 | 1017.7 |
| 20260506182339 | 57 | 295 | 5.0 | 7.0 | 0.00 | 0.00 | 0.00 | 39 | 1017.8 |
| 20260506181837 | 56 | 304 | 2.0 | 2.0 | 0.00 | 0.00 | 0.00 | 39 | 1018.1 |
| 20260506181335 | 56 | 299 | 3.0 | 5.0 | 0.00 | 0.00 | 0.00 | 41 | 1018.2 |
| 20260506180832 | 56 | 329 | 5.0 | 6.0 | 0.00 | 0.00 | 0.00 | 39 | 1017.9 |
| 20260506180327 | 55 | 320 | 4.0 | 5.0 | 0.00 | 0.00 | 0.00 | 40 | 1018.1 |
| 20260506175824 | 56 | 41 | 2.0 | 3.0 | 0.00 | 0.00 | 0.00 | 40 | 1017.9 |
| 20260506175320 | 56 | 344 | 3.0 | 3.0 | 0.00 | 0.00 | 0.00 | 39 | 1017.9 |
| 20260506174813 | 56 | 337 | 1.0 | 2.0 | 0.00 | 0.00 | 0.00 | 42 | 1018.2 |
| 20260506174309 | 56 | 352 | 2.0 | 2.0 | 0.00 | 0.00 | 0.00 | 42 | 1018.2 |
| 20260506173807 | 55 | 320 | 2.0 | 2.0 | 0.00 | 0.00 | 0.00 | 42 | 1018.2 |
| 20260506173304 | 55 | 341 | 4.0 | 5.0 | 0.00 | 0.00 | 0.00 | 39 | 1017.9 |
| 20260506172800 | 56 | 357 | 3.0 | 3.0 | 0.00 | 0.00 | 0.00 | 37 | 1017.9 |
| 20260506172257 | 57 | 6 | 3.0 | 3.0 | 0.00 | 0.00 | 0.00 | 39 | 1018.0 |
| 20260506171755 | 58 | 300 | 2.0 | 3.0 | 0.00 | 0.00 | 0.00 | 38 | 1017.9 |
| 20260506171252 | 59 | 253 | 0.0 | 1.0 | 0.00 | 0.00 | 0.00 | 40 | 1018.0 |
| 20260506170750 | 59 | 348 | 1.0 | 2.0 | 0.00 | 0.00 | 0.00 | 40 | 1017.9 |
| 20260506170246 | 57 | 358 | 1.0 | 1.0 | 0.00 | 0.00 | 0.00 | 40 | 1018.1 |
| 20260506165744 | 58 | 326 | 2.0 | 3.0 | 0.00 | 0.00 | 0.00 | 40 | 1018.2 |
| 20260506165241 | 57 | 7 | 1.0 | 2.0 | 0.00 | 0.00 | 0.00 | 39 | 1018.2 |
| 20260506164738 | 57 | 354 | 2.0 | 3.0 | 0.00 | 0.00 | 0.00 | 43 | 1018.3 |
| 20260506164235 | 58 | 354 | 3.0 | 6.0 | 0.00 | 0.00 | 0.00 | 40 | 1017.9 |
| 20260506163732 | 55 | 318 | 0.0 | 1.0 | 0.00 | 0.00 | 0.00 | 41 | 1017.9 |
| 20260506163226 | 55 | 294 | 4.0 | 5.0 | 0.00 | 0.00 | 0.00 | 42 | 1018.0 |
| 20260506162723 | 55 | 328 | 2.0 | 2.0 | 0.00 | 0.00 | 0.00 | 45 | 1018.1 |
| 20260506162221 | 55 | 26 | 2.0 | 3.0 | 0.00 | 0.00 | 0.00 | 42 | 1018.0 |
| 20260506161718 | 55 | 327 | 2.0 | 2.0 | 0.00 | 0.00 | 0.00 | 44 | 1018.0 |
| 20260506161215 | 56 | 5 | 5.0 | 7.0 | 0.00 | 0.00 | 0.00 | 43 | 1018.0 |
| 20260506160713 | 56 | 347 | 2.0 | 2.0 | 0.00 | 0.00 | 0.00 | 44 | 1017.9 |
| 20260506160209 | 55 | 21 | 0.0 | 1.0 | 0.00 | 0.00 | 0.00 | 45 | 1018.0 |
| 20260506155708 | 55 | 2 | 0.0 | 1.0 | 0.00 | 0.00 | 0.00 | 46 | 1017.8 |
| 20260506155204 | 55 | 14 | 1.0 | 1.0 | 0.00 | 0.00 | 0.00 | 46 | 1017.7 |
| 20260506153306 | 55 | 350 | 3.0 | 3.0 | 0.00 | 0.00 | 0.00 | 42 | 1017.6 |
| 20260506152803 | 55 | 319 | 4.0 | 6.0 | 0.00 | 0.00 | 0.00 | 41 | 1017.6 |
| 20260506152300 | 55 | 319 | 5.0 | 6.0 | 0.00 | 0.00 | 0.00 | 42 | 1017.5 |
| 20260506151759 | 55 | 310 | 3.0 | 5.0 | 0.00 | 0.00 | 0.00 | 44 | 1017.6 |
| 20260506151255 | 54 | 1 | 3.0 | 3.0 | 0.00 | 0.00 | 0.00 | 49 | 1017.6 |
| 20260506150752 | 54 | 337 | 3.0 | 3.0 | 0.00 | 0.00 | 0.00 | 48 | 1017.4 |
| 20260506150249 | 55 | 336 | 3.0 | 3.0 | 0.00 | 0.00 | 0.00 | 51 | 1017.8 |
| 20260506145746 | 54 | 333 | 4.0 | 6.0 | 0.00 | 0.00 | 0.00 | 51 | 1017.6 |
| 20260506145242 | 53 | 3 | 2.0 | 2.0 | 0.00 | 0.00 | 0.00 | 56 | 1017.5 |
| 20260506144740 | 53 | 327 | 2.0 | 3.0 | 0.00 | 0.00 | 0.00 | 55 | 1017.6 |